Weather History for Fairfield, CA

Change the Weather History Date:

Tuesday, February 5, 2013

  Actual Average Record
Temperature  
Mean Temperature 52 °F -  
Max Temperature 62 °F 56 °F 75 °F (2011)
Min Temperature 40 °F 38 °F 32 °F (2001)
Degree Days  
Heating Degree Days 13    
Growing Degree Days 2 (Base 50)    
Moisture  
Dew Point 46 °F    
Average Humidity 93    
Maximum Humidity 100    
Minimum Humidity 67    
Precipitation  
Precipitation 0.00 in - - ()
Sea Level Pressure  
Sea Level Pressure 30.08 in    
Wind  
Wind Speed 15 mph (WSW)    
Max Wind Speed 21 mph    
Max Gust Speed -    
Visibility 10 miles    
Events      
Averages and records for this station are not official NWS values.
T = Trace of Precipitation, MM = Missing Value Source: NWS Daily Summary

Daily Weather History Graph

Daily Weather History Graph

Search for Another Location

Airport:

Trip Planner

Search our weather history database for the weather conditions in past years. The results will help you decide how hot, cold, wet, or windy it might be!

Date:

Astronomy

Feb. 05, 2013 Rise Set
Actual Time 7:08 AM PST 5:35 PM PST
Civil Twilight 6:41 AM PST 6:03 PM PST
Nautical Twilight 6:09 AM PST 6:34 PM PST
Astronomical Twilight 5:38 AM PST 7:05 PM PST
Moon 2:54 AM PST (2/5) 12:59 PM PST (2/5)
Length of Visible Light 11h 21m
Length of Day
10h 26m
Waning Crescent, 25% of the Moon is Illuminated
Feb 5
Waning Crescent
Feb 9
New
Feb 17
First Quarter
Feb 25
Full
Mar 4
Last Quarter

Hourly Weather History & Observations

Time (PST) Temp. Windchill Dew Point Humidity Pressure Visibility Wind Dir Wind Speed Gust Speed Precip Events Conditions
12:58 AM 43.5 °F 35.2 °F 43.5 °F 100% 30.07 in 10.0 mi WSW 19.6 mph - N/A   Clear
1:58 AM 43.5 °F 36.4 °F 43.5 °F 100% 30.07 in 10.0 mi SW 15.0 mph - N/A   Clear
2:58 AM 43.3 °F 35.8 °F 43.3 °F 100% 30.07 in 10.0 mi SW 16.1 mph - N/A   Clear
3:58 AM 42.8 °F 36.2 °F 42.8 °F 100% 30.08 in 10.0 mi WSW 12.7 mph - N/A   Clear
4:58 AM 42.8 °F 35.8 °F 42.8 °F 100% 30.07 in 10.0 mi SW 13.8 mph - N/A   Clear
5:55 AM 62.6 °F - 59.0 °F 88% 29.98 in 12006.0 mi North - - N/A   Mostly Cloudy
5:58 AM 42.8 °F 36.2 °F 42.8 °F 100% 30.06 in 10.0 mi WSW 12.7 mph - N/A   Clear
6:58 AM 43.3 °F 36.8 °F 43.3 °F 100% 30.07 in 10.0 mi WSW 12.7 mph - N/A   Clear
7:58 AM 45.0 °F 38.2 °F 44.8 °F 99% 30.08 in 10.0 mi West 15.0 mph - N/A   Scattered Clouds
8:08 AM 44.6 °F 37.8 °F 44.6 °F 100% 30.07 in 10.0 mi WSW 15.0 mph - N/A   Mostly Cloudy
8:58 AM 46.9 °F - 46.6 °F 99% 30.10 in 10.0 mi WSW 20.7 mph - N/A   Overcast
9:53 AM 48.2 °F - 46.4 °F 93% 30.08 in 10.0 mi WSW 18.4 mph - N/A   Mostly Cloudy
9:58 AM 48.4 °F - 46.6 °F 93% 30.10 in 10.0 mi West 16.1 mph - N/A   Scattered Clouds
10:58 AM 50.2 °F - 47.1 °F 89% 30.11 in 10.0 mi WSW 18.4 mph - N/A   Partly Cloudy
11:58 AM 50.9 °F - 47.8 °F 89% 30.09 in 10.0 mi WSW 17.3 mph - N/A   Scattered Clouds
12:58 PM 53.6 °F - 47.3 °F 79% 30.07 in 10.0 mi West 19.6 mph - N/A   Partly Cloudy
1:58 PM 57.2 °F - 46.9 °F 69% 30.05 in 10.0 mi WSW 12.7 mph - N/A   Partly Cloudy
2:58 PM 58.5 °F - 47.5 °F 67% 30.05 in 10.0 mi WSW 16.1 mph - N/A   Clear
3:58 PM 58.6 °F - 50.2 °F 73% 30.05 in 10.0 mi WSW 20.7 mph - N/A   Clear
4:58 PM 56.5 °F - 50.9 °F 82% 30.06 in 10.0 mi WSW 16.1 mph - N/A   Clear
5:58 PM 53.2 °F - 51.3 °F 93% 30.06 in 10.0 mi WSW 13.8 mph - N/A   Clear
6:58 PM 50.4 °F - 50.0 °F 99% 30.07 in 10.0 mi SW 13.8 mph - N/A   Clear
7:58 PM 48.9 °F - 48.7 °F 99% 30.09 in 10.0 mi WSW 11.5 mph - N/A   Clear
8:58 PM 45.3 °F 40.6 °F 45.3 °F 100% 30.10 in 10.0 mi SW 9.2 mph - N/A   Clear
9:58 PM 43.7 °F 38.1 °F 43.7 °F 100% 30.12 in 10.0 mi WSW 10.4 mph - N/A   Clear
10:58 PM 42.8 °F 38.0 °F 42.6 °F 99% 30.13 in 10.0 mi WSW 8.1 mph - N/A   Clear
11:58 PM 40.3 °F - 40.3 °F 100% 30.14 in 10.0 mi SW 1.2 mph - N/A   Clear